Location: Newark
(40.3500°N, 15.2333°E)
Time: 10:26:18
(UTC+00:00)

NOAA 19 - Pass Details

Date: 27 February 2020
Orbit: 842 x 860 km, 99.2° (Epoch: 06 April)

Event Time Altitude Azimuth Distance (km) Brightness Sun altitude
Rises 04:22:39 0° 21° (NNE) 3,424 8.7 -14.9°
Reaches altitude 10° 04:25:09 10° 28° (NNE) 2,487 8.0 -14.4°
Maximum altitude 04:30:23 43° 99° (E) 1,190 6.6 -13.4°
Drops below altitude 10° 04:35:36 10° 170° (S) 2,482 7.8 -12.4°
Sets 04:38:05 0° 177° (S) 3,416 8.4 -12.0°
